Time,TemperatureF,DewpointF,PressureIn,WindDirection,WindDirectionDegrees,WindSpeedMPH,WindSpeedGustMPH,Humidity,HourlyPrecipIn,Conditions,Clouds,dailyrainin,SoftwareType,DateUTC
2013-09-15 00:02:00,59.0,50.0,29.68,WSW,251,0.0,0.0,70,0.00,,,0.00,WUHU216WMR968SP,2013-09-15 07:02:00,
2013-09-15 00:07:00,59.0,50.0,29.68,WSW,251,0.0,0.0,70,0.00,,,0.00,WUHU216WMR968SP,2013-09-15 07:07:00,
2013-09-15 00:12:00,58.6,48.2,29.68,WSW,251,0.0,0.0,69,0.00,,,0.00,WUHU216WMR968SP,2013-09-15 07:12:00,
2013-09-15 00:17:00,58.6,50.0,29.68,WSW,251,0.0,0.0,70,0.00,,,0.00,WUHU216WMR968SP,2013-09-15 07:17:00,
2013-09-15 00:22:00,58.8,50.0,29.68,WSW,251,0.0,0.0,70,0.00,,,0.00,WUHU216WMR968SP,2013-09-15 07:22:00,
2013-09-15 00:27:00,59.0,50.0,29.68,WSW,251,0.0,0.0,71,0.00,,,0.00,WUHU216WMR968SP,2013-09-15 07:27:00,
2013-09-15 00:32:00,59.2,50.0,29.68,WSW,251,0.0,0.0,71,0.00,,,0.00,WUHU216WMR968SP,2013-09-15 07:32:00,
2013-09-15 00:37:00,59.2,50.0,29.68,WSW,251,0.0,0.0,71,0.00,,,0.00,WUHU216WMR968SP,2013-09-15 07:37:00,
2013-09-15 00:42:00,59.2,50.0,29.68,WSW,251,0.0,0.0,71,0.00,,,0.00,WUHU216WMR968SP,2013-09-15 07:42:00,
2013-09-15 00:47:00,59.2,50.0,29.68,WSW,251,0.0,0.0,71,0.00,,,0.00,WUHU216WMR968SP,2013-09-15 07:47:00,
2013-09-15 00:52:00,59.4,50.0,29.70,WSW,251,0.0,0.0,72,0.00,,,0.00,WUHU216WMR968SP,2013-09-15 07:52:00,
2013-09-15 00:57:00,59.5,50.0,29.70,WSW,251,0.0,0.0,72,0.00,,,0.00,WUHU216WMR968SP,2013-09-15 07:57:00,
2013-09-15 01:02:00,59.4,50.0,29.70,WSW,251,0.0,0.0,71,0.00,,,0.00,WUHU216WMR968SP,2013-09-15 08:02:00,
2013-09-15 01:07:00,59.4,50.0,29.68,WSW,251,0.0,0.0,72,0.00,,,0.00,WUHU216WMR968SP,2013-09-15 08:07:00,
2013-09-15 01:12:00,59.5,50.0,29.68,WSW,251,0.0,0.0,72,0.00,,,0.00,WUHU216WMR968SP,2013-09-15 08:12:00,
2013-09-15 01:17:00,59.5,50.0,29.68,WSW,251,0.0,0.0,72,0.00,,,0.00,WUHU216WMR968SP,2013-09-15 08:17:00,
2013-09-15 01:22:00,59.7,50.0,29.68,WSW,251,0.0,0.0,72,0.00,,,0.00,WUHU216WMR968SP,2013-09-15 08:22:00,
2013-09-15 01:27:00,59.7,50.0,29.68,WSW,251,0.0,0.0,72,0.00,,,0.00,WUHU216WMR968SP,2013-09-15 08:27:00,
2013-09-15 01:32:00,59.7,50.0,29.68,WSW,251,0.0,0.0,72,0.00,,,0.00,WUHU216WMR968SP,2013-09-15 08:32:00,
2013-09-15 01:37:00,59.7,50.0,29.68,WSW,251,0.0,0.0,72,0.00,,,0.00,WUHU216WMR968SP,2013-09-15 08:37:00,
2013-09-15 01:42:00,59.9,51.8,29.68,WSW,251,0.0,0.0,72,0.00,,,0.00,WUHU216WMR968SP,2013-09-15 08:42:00,
2013-09-15 01:47:00,60.1,51.8,29.68,WSW,251,0.0,0.0,73,0.00,,,0.00,WUHU216WMR968SP,2013-09-15 08:47:00,
2013-09-15 01:52:00,60.1,51.8,29.68,WSW,251,0.0,0.0,73,0.00,,,0.00,WUHU216WMR968SP,2013-09-15 08:52:00,
2013-09-15 01:57:00,60.3,51.8,29.68,WSW,251,0.0,0.0,73,0.00,,,0.00,WUHU216WMR968SP,2013-09-15 08:57:00,
2013-09-15 02:02:00,59.9,51.8,29.68,WSW,251,0.0,0.0,72,0.00,,,0.00,WUHU216WMR968SP,2013-09-15 09:02:00,
2013-09-15 02:07:00,59.7,50.0,29.68,WSW,251,0.0,0.0,72,0.00,,,0.00,WUHU216WMR968SP,2013-09-15 09:07:00,
2013-09-15 02:12:00,59.9,51.8,29.68,WSW,251,0.0,0.0,73,0.00,,,0.00,WUHU216WMR968SP,2013-09-15 09:12:00,
2013-09-15 02:17:00,60.1,51.8,29.68,WSW,251,0.0,0.0,73,0.00,,,0.00,WUHU216WMR968SP,2013-09-15 09:17:00,
2013-09-15 02:22:00,59.9,51.8,29.68,WSW,251,0.0,0.0,73,0.00,,,0.00,WUHU216WMR968SP,2013-09-15 09:22:00,
2013-09-15 02:27:00,59.9,51.8,29.68,WSW,251,0.0,0.0,73,0.00,,,0.00,WUHU216WMR968SP,2013-09-15 09:27:00,
2013-09-15 02:32:00,59.9,51.8,29.68,WSW,251,0.0,0.0,73,0.00,,,0.00,WUHU216WMR968SP,2013-09-15 09:32:00,
2013-09-15 02:37:00,60.1,51.8,29.68,WSW,251,0.0,0.0,73,0.00,,,0.00,WUHU216WMR968SP,2013-09-15 09:37:00,
2013-09-15 02:42:00,60.3,51.8,29.68,WSW,251,0.0,0.0,73,0.00,,,0.00,WUHU216WMR968SP,2013-09-15 09:42:00,
2013-09-15 02:47:00,60.6,51.8,29.68,WSW,252,0.0,0.0,74,0.00,,,0.00,WUHU216WMR968SP,2013-09-15 09:47:00,
2013-09-15 02:52:00,60.8,51.8,29.68,WSW,252,0.0,0.0,73,0.00,,,0.00,WUHU216WMR968SP,2013-09-15 09:52:00,
2013-09-15 03:35:00,60.4,51.8,29.68,WNW,293,0.0,0.0,74,0.00,,,0.00,WUHU216WMR968SP,2013-09-15 10:35:00,
2013-09-15 03:40:00,60.4,51.8,29.68,WSW,239,0.0,0.0,74,0.00,,,0.00,WUHU216WMR968SP,2013-09-15 10:40:00,
2013-09-15 03:45:00,60.4,51.8,29.68,WSW,243,0.0,2.2,74,0.00,,,0.00,WUHU216WMR968SP,2013-09-15 10:45:00,
2013-09-15 03:50:00,60.3,51.8,29.68,WSW,243,0.0,2.2,74,0.00,,,0.00,WUHU216WMR968SP,2013-09-15 10:50:00,
2013-09-15 03:55:00,60.3,51.8,29.68,WSW,243,0.0,0.0,74,0.00,,,0.00,WUHU216WMR968SP,2013-09-15 10:55:00,
2013-09-15 04:00:00,60.3,51.8,29.68,West,266,0.0,2.2,74,0.00,,,0.00,WUHU216WMR968SP,2013-09-15 11:00:00,
2013-09-15 04:05:00,60.1,51.8,29.68,SW,235,0.0,2.2,74,0.00,,,0.00,WUHU216WMR968SP,2013-09-15 11:05:00,
2013-09-15 04:10:00,60.1,53.6,29.68,West,278,0.0,0.0,75,0.00,,,0.00,WUHU216WMR968SP,2013-09-15 11:10:00,
2013-09-15 04:15:00,60.1,53.6,29.68,West,278,0.0,0.0,75,0.00,,,0.00,WUHU216WMR968SP,2013-09-15 11:15:00,
2013-09-15 04:20:00,59.9,53.6,29.70,West,279,0.0,0.0,75,0.00,,,0.00,WUHU216WMR968SP,2013-09-15 11:20:00,
2013-09-15 04:25:00,59.7,50.0,29.70,West,279,0.0,0.0,74,0.00,,,0.00,WUHU216WMR968SP,2013-09-15 11:25:00,
2013-09-15 04:30:00,59.7,50.0,29.70,West,279,0.0,0.0,74,0.00,,,0.00,WUHU216WMR968SP,2013-09-15 11:30:00,
2013-09-15 04:35:00,59.7,50.0,29.70,West,279,0.0,0.0,74,0.00,,,0.00,WUHU216WMR968SP,2013-09-15 11:35:00,
2013-09-15 04:40:00,59.5,50.0,29.70,West,279,0.0,0.0,74,0.00,,,0.00,WUHU216WMR968SP,2013-09-15 11:40:00,
2013-09-15 04:45:00,59.5,50.0,29.70,WNW,284,0.0,0.0,74,0.00,,,0.00,WUHU216WMR968SP,2013-09-15 11:45:00,
2013-09-15 04:50:00,59.5,51.8,29.70,WNW,284,0.0,0.0,75,0.00,,,0.00,WUHU216WMR968SP,2013-09-15 11:50:00,
2013-09-15 04:55:00,59.5,51.8,29.70,WNW,284,0.0,0.0,75,0.00,,,0.00,WUHU216WMR968SP,2013-09-15 11:55:00,
2013-09-15 05:00:00,59.5,51.8,29.70,WNW,284,0.0,0.0,75,0.00,,,0.00,WUHU216WMR968SP,2013-09-15 12:00:00,
2013-09-15 05:05:00,59.5,51.8,29.68,WNW,284,0.0,0.0,75,0.00,,,0.00,WUHU216WMR968SP,2013-09-15 12:05:00,
2013-09-15 05:10:00,59.4,50.0,29.68,WNW,284,0.0,0.0,74,0.00,,,0.00,WUHU216WMR968SP,2013-09-15 12:10:00,
2013-09-15 05:15:00,59.4,50.0,29.68,WNW,284,0.0,0.0,74,0.00,,,0.00,WUHU216WMR968SP,2013-09-15 12:15:00,
2013-09-15 05:20:00,59.2,50.0,29.70,WNW,284,0.0,0.0,74,0.00,,,0.00,WUHU216WMR968SP,2013-09-15 12:20:00,
2013-09-15 05:25:00,59.2,50.0,29.70,West,271,0.0,0.0,74,0.00,,,0.00,WUHU216WMR968SP,2013-09-15 12:25:00,
2013-09-15 05:30:00,59.0,50.0,29.70,West,267,0.0,0.0,74,0.00,,,0.00,WUHU216WMR968SP,2013-09-15 12:30:00,
2013-09-15 05:35:00,58.8,51.8,29.70,West,267,0.0,0.0,75,0.00,,,0.00,WUHU216WMR968SP,2013-09-15 12:35:00,
2013-09-15 05:40:00,58.8,51.8,29.70,West,266,0.0,0.0,75,0.00,,,0.00,WUHU216WMR968SP,2013-09-15 12:40:00,
2013-09-15 05:45:00,58.8,51.8,29.70,West,267,0.0,0.0,75,0.00,,,0.00,WUHU216WMR968SP,2013-09-15 12:45:00,
2013-09-15 05:50:00,58.8,51.8,29.70,West,267,0.0,0.0,75,0.00,,,0.00,WUHU216WMR968SP,2013-09-15 12:50:00,
2013-09-15 05:55:00,58.8,51.8,29.70,West,267,0.0,0.0,75,0.00,,,0.00,WUHU216WMR968SP,2013-09-15 12:55:00,
2013-09-15 06:00:00,58.8,51.8,29.70,West,267,0.0,0.0,75,0.00,,,0.00,WUHU216WMR968SP,2013-09-15 13:00:00,
2013-09-15 06:05:00,58.8,51.8,29.70,West,266,0.0,0.0,75,0.00,,,0.00,WUHU216WMR968SP,2013-09-15 13:05:00,
2013-09-15 06:10:00,58.8,51.8,29.70,West,267,0.0,0.0,75,0.00,,,0.00,WUHU216WMR968SP,2013-09-15 13:10:00,
2013-09-15 06:15:00,59.0,51.8,29.70,West,267,0.0,0.0,75,0.00,,,0.00,WUHU216WMR968SP,2013-09-15 13:15:00,
2013-09-15 06:20:00,59.0,51.8,29.70,West,267,0.0,0.0,75,0.00,,,0.00,WUHU216WMR968SP,2013-09-15 13:20:00,
2013-09-15 06:25:00,59.0,51.8,29.70,West,267,0.0,0.0,75,0.00,,,0.00,WUHU216WMR968SP,2013-09-15 13:25:00,
2013-09-15 06:30:00,59.0,51.8,29.70,West,267,0.0,0.0,75,0.00,,,0.00,WUHU216WMR968SP,2013-09-15 13:30:00,
2013-09-15 06:35:00,59.0,51.8,29.70,West,266,0.0,0.0,75,0.00,,,0.00,WUHU216WMR968SP,2013-09-15 13:35:00,
2013-09-15 06:40:00,59.0,51.8,29.70,West,267,0.0,0.0,75,0.00,,,0.00,WUHU216WMR968SP,2013-09-15 13:40:00,
2013-09-15 06:45:00,59.0,51.8,29.70,West,267,0.0,0.0,75,0.00,,,0.00,WUHU216WMR968SP,2013-09-15 13:45:00,
2013-09-15 06:50:00,58.8,51.8,29.70,West,268,0.0,0.0,75,0.00,,,0.00,WUHU216WMR968SP,2013-09-15 13:50:00,
2013-09-15 06:55:00,58.6,51.8,29.70,West,267,0.0,0.0,75,0.00,,,0.00,WUHU216WMR968SP,2013-09-15 13:55:00,
2013-09-15 07:00:00,58.6,51.8,29.70,West,266,0.0,0.0,75,0.00,,,0.00,WUHU216WMR968SP,2013-09-15 14:00:00,
2013-09-15 07:05:00,58.6,51.8,29.70,West,267,0.0,0.0,75,0.00,,,0.00,WUHU216WMR968SP,2013-09-15 14:05:00,
2013-09-15 07:10:00,58.6,51.8,29.70,West,266,0.0,0.0,75,0.00,,,0.00,WUHU216WMR968SP,2013-09-15 14:10:00,
2013-09-15 07:15:00,58.6,51.8,29.70,West,268,0.0,0.0,75,0.00,,,0.00,WUHU216WMR968SP,2013-09-15 14:15:00,
2013-09-15 07:20:00,58.5,51.8,29.70,West,268,0.0,0.0,75,0.00,,,0.00,WUHU216WMR968SP,2013-09-15 14:20:00,
2013-09-15 07:25:00,58.5,51.8,29.70,West,267,0.0,0.0,75,0.00,,,0.00,WUHU216WMR968SP,2013-09-15 14:25:00,
2013-09-15 07:30:00,58.5,51.8,29.70,West,266,0.0,0.0,75,0.00,,,0.00,WUHU216WMR968SP,2013-09-15 14:30:00,
2013-09-15 07:35:00,58.5,51.8,29.70,West,266,0.0,0.0,75,0.00,,,0.00,WUHU216WMR968SP,2013-09-15 14:35:00,
2013-09-15 07:40:00,58.5,51.8,29.70,West,266,0.0,0.0,75,0.00,,,0.00,WUHU216WMR968SP,2013-09-15 14:40:00,
2013-09-15 07:45:00,58.5,51.8,29.70,West,266,0.0,0.0,75,0.00,,,0.00,WUHU216WMR968SP,2013-09-15 14:45:00,
2013-09-15 07:50:00,58.6,51.8,29.70,West,266,0.0,0.0,75,0.00,,,0.00,WUHU216WMR968SP,2013-09-15 14:50:00,
2013-09-15 07:55:00,58.6,51.8,29.70,North,353,0.0,0.0,75,0.00,,,0.00,WUHU216WMR968SP,2013-09-15 14:55:00,
2013-09-15 08:00:00,58.6,51.8,29.70,North,353,0.0,0.0,75,0.00,,,0.00,WUHU216WMR968SP,2013-09-15 15:00:00,
2013-09-15 08:05:00,58.8,51.8,29.70,North,353,0.0,0.0,76,0.00,,,0.00,WUHU216WMR968SP,2013-09-15 15:05:00,
2013-09-15 08:10:00,58.8,51.8,29.70,North,353,0.0,0.0,76,0.00,,,0.00,WUHU216WMR968SP,2013-09-15 15:10:00,
2013-09-15 08:15:00,59.0,51.8,29.70,North,353,0.0,0.0,75,0.00,,,0.00,WUHU216WMR968SP,2013-09-15 15:15:00,
2013-09-15 08:20:00,59.0,51.8,29.70,North,353,0.0,0.0,75,0.00,,,0.00,WUHU216WMR968SP,2013-09-15 15:20:00,
2013-09-15 08:25:00,59.2,51.8,29.70,North,353,0.0,0.0,75,0.00,,,0.00,WUHU216WMR968SP,2013-09-15 15:25:00,
2013-09-15 08:31:00,59.4,51.8,29.70,North,353,0.0,0.0,75,0.00,,,0.00,WUHU216WMR968SP,2013-09-15 15:31:00,
2013-09-15 08:36:00,59.2,51.8,29.70,North,353,0.0,0.0,75,0.00,,,0.00,WUHU216WMR968SP,2013-09-15 15:36:00,
2013-09-15 08:41:00,59.2,51.8,29.70,North,353,0.0,0.0,75,0.00,,,0.00,WUHU216WMR968SP,2013-09-15 15:41:00,
2013-09-15 08:46:00,59.4,51.8,29.70,North,353,0.0,0.0,75,0.00,,,0.00,WUHU216WMR968SP,2013-09-15 15:46:00,
2013-09-15 08:51:00,59.4,51.8,29.73,North,353,0.0,0.0,75,0.00,,,0.00,WUHU216WMR968SP,2013-09-15 15:51:00,
2013-09-15 08:56:00,59.5,51.8,29.73,North,353,0.0,0.0,75,0.00,,,0.00,WUHU216WMR968SP,2013-09-15 15:56:00,
2013-09-15 09:01:00,59.7,51.8,29.73,North,350,0.0,0.0,75,0.00,,,0.00,WUHU216WMR968SP,2013-09-15 16:01:00,
2013-09-15 09:06:00,59.7,51.8,29.73,North,353,0.0,0.0,75,0.00,,,0.00,WUHU216WMR968SP,2013-09-15 16:06:00,
2013-09-15 09:11:00,59.7,50.0,29.73,WNW,301,0.0,0.0,74,0.00,,,0.00,WUHU216WMR968SP,2013-09-15 16:11:00,
2013-09-15 09:16:00,60.1,51.8,29.73,WNW,301,0.0,0.0,74,0.00,,,0.00,WUHU216WMR968SP,2013-09-15 16:16:00,
2013-09-15 09:21:00,60.1,51.8,29.73,WNW,301,0.0,0.0,73,0.00,,,0.00,WUHU216WMR968SP,2013-09-15 16:21:00,
2013-09-15 09:26:00,60.1,51.8,29.73,WNW,301,0.0,0.0,72,0.00,,,0.00,WUHU216WMR968SP,2013-09-15 16:26:00,
2013-09-15 09:31:00,60.1,46.4,29.73,SSW,204,0.0,0.0,60,0.00,,,0.00,WUHU216WMR968SP,2013-09-15 16:31:00,
2013-09-15 09:36:00,60.3,42.8,29.73,SSW,202,0.0,0.0,51,0.00,,,0.00,WUHU216WMR968SP,2013-09-15 16:36:00,
2013-09-15 09:41:00,60.4,41.0,29.73,SSW,202,0.0,0.0,47,0.00,,,0.00,WUHU216WMR968SP,2013-09-15 16:41:00,
2013-09-15 09:46:00,60.4,41.0,29.73,SSW,203,0.0,0.0,47,0.00,,,0.00,WUHU216WMR968SP,2013-09-15 16:46:00,
2013-09-15 09:51:00,60.6,39.2,29.73,SSW,202,0.0,0.0,46,0.00,,,0.00,WUHU216WMR968SP,2013-09-15 16:51:00,
2013-09-15 09:56:00,60.6,39.2,29.73,SSW,202,0.0,0.0,45,0.00,,,0.00,WUHU216WMR968SP,2013-09-15 16:56:00,
2013-09-15 10:01:00,60.8,39.2,29.73,SSW,203,0.0,0.0,44,0.00,,,0.00,WUHU216WMR968SP,2013-09-15 17:01:00,
2013-09-15 10:06:00,61.0,39.2,29.73,WNW,294,0.0,0.0,45,0.00,,,0.00,WUHU216WMR968SP,2013-09-15 17:06:00,
2013-09-15 10:11:00,61.0,39.2,29.73,WNW,289,0.0,0.0,44,0.00,,,0.00,WUHU216WMR968SP,2013-09-15 17:11:00,
2013-09-15 10:16:00,61.2,39.2,29.73,SW,218,0.0,0.0,44,0.00,,,0.00,WUHU216WMR968SP,2013-09-15 17:16:00,
2013-09-15 10:21:00,61.2,37.4,29.73,SW,218,0.0,0.0,42,0.00,,,0.00,WUHU216WMR968SP,2013-09-15 17:21:00,
2013-09-15 10:26:00,61.2,37.4,29.73,SW,218,0.0,0.0,42,0.00,,,0.00,WUHU216WMR968SP,2013-09-15 17:26:00,
2013-09-15 10:31:00,61.3,37.4,29.73,WNW,290,0.0,2.7,42,0.00,,,0.00,WUHU216WMR968SP,2013-09-15 17:31:00,
2013-09-15 10:36:00,61.3,37.4,29.73,West,265,0.0,2.7,42,0.00,,,0.00,WUHU216WMR968SP,2013-09-15 17:36:00,
2013-09-15 10:41:00,61.5,37.4,29.73,WNW,294,0.0,4.9,41,0.00,,,0.00,WUHU216WMR968SP,2013-09-15 17:41:00,
2013-09-15 10:46:00,61.3,37.4,29.73,WNW,293,0.0,4.9,42,0.00,,,0.00,WUHU216WMR968SP,2013-09-15 17:46:00,
2013-09-15 10:51:00,61.3,37.4,29.73,WNW,302,0.0,0.0,41,0.00,,,0.00,WUHU216WMR968SP,2013-09-15 17:51:00,
2013-09-15 10:56:00,61.3,37.4,29.73,WSW,245,0.0,3.1,41,0.00,,,0.00,WUHU216WMR968SP,2013-09-15 17:56:00,
2013-09-15 11:01:00,61.3,35.6,29.73,WSW,246,0.0,3.1,40,0.00,,,0.00,WUHU216WMR968SP,2013-09-15 18:01:00,
2013-09-15 11:06:00,61.7,37.4,29.73,WSW,245,0.0,0.0,40,0.00,,,0.00,WUHU216WMR968SP,2013-09-15 18:06:00,
2013-09-15 11:11:00,61.7,37.4,29.73,SW,224,0.0,3.1,39,0.00,,,0.00,WUHU216WMR968SP,2013-09-15 18:11:00,
2013-09-15 11:16:00,61.9,37.4,29.73,SW,222,0.0,3.1,38,0.00,,,0.00,WUHU216WMR968SP,2013-09-15 18:16:00,
2013-09-15 11:21:00,62.2,37.4,29.73,SW,224,0.0,3.1,38,0.00,,,0.00,WUHU216WMR968SP,2013-09-15 18:21:00,
2013-09-15 11:26:00,62.6,35.6,29.73,SSW,201,0.0,2.7,37,0.00,,,0.00,WUHU216WMR968SP,2013-09-15 18:26:00,
2013-09-15 11:31:00,63.0,35.6,29.73,SSW,203,0.0,2.7,37,0.00,,,0.00,WUHU216WMR968SP,2013-09-15 18:31:00,
2013-09-15 11:36:00,63.1,35.6,29.76,SSW,202,0.0,2.7,36,0.00,,,0.00,WUHU216WMR968SP,2013-09-15 18:36:00,
2013-09-15 11:41:00,63.5,35.6,29.76,SSE,155,2.2,3.6,35,0.00,,,0.00,WUHU216WMR968SP,2013-09-15 18:41:00,
2013-09-15 11:46:00,63.9,35.6,29.76,SSE,159,0.0,3.6,35,0.00,,,0.00,WUHU216WMR968SP,2013-09-15 18:46:00,
2013-09-15 11:51:00,64.0,35.6,29.76,SSE,158,0.0,2.7,35,0.00,,,0.00,WUHU216WMR968SP,2013-09-15 18:51:00,
2013-09-15 11:56:00,64.2,35.6,29.76,SSE,159,0.0,0.0,35,0.00,,,0.00,WUHU216WMR968SP,2013-09-15 18:56:00,
2013-09-15 12:01:00,64.4,35.6,29.76,SSE,160,0.0,2.2,34,0.00,,,0.00,WUHU216WMR968SP,2013-09-15 19:01:00,
2013-09-15 12:06:00,64.2,33.8,29.76,SSW,197,2.2,3.1,33,0.00,,,0.00,WUHU216WMR968SP,2013-09-15 19:06:00,
2013-09-15 12:11:00,64.2,35.6,29.76,West,264,2.7,4.0,34,0.00,,,0.00,WUHU216WMR968SP,2013-09-15 19:11:00,
2013-09-15 12:16:00,64.4,33.8,29.76,West,266,0.0,4.0,33,0.00,,,0.00,WUHU216WMR968SP,2013-09-15 19:16:00,
2013-09-15 12:18:00,64.2,33.8,29.76,SW,230,0.0,4.0,33,0.00,,,0.00,WUHU216WMR968SP,2013-09-15 19:18:00,
2013-09-15 12:23:00,64.0,33.8,29.76,South,170,2.7,3.6,33,0.00,,,0.00,WUHU216WMR968SP,2013-09-15 19:23:00,
2013-09-15 12:28:00,64.0,33.8,29.76,SSE,161,2.2,3.6,33,0.00,,,0.00,WUHU216WMR968SP,2013-09-15 19:28:00,
2013-09-15 12:33:00,64.0,35.6,29.76,SSW,198,0.0,3.6,34,0.00,,,0.00,WUHU216WMR968SP,2013-09-15 19:33:00,
2013-09-15 12:38:00,64.0,35.6,29.76,SSW,198,0.0,3.1,34,0.00,,,0.00,WUHU216WMR968SP,2013-09-15 19:38:00,
2013-09-15 12:43:00,64.2,33.8,29.76,SSW,197,0.0,3.1,33,0.00,,,0.00,WUHU216WMR968SP,2013-09-15 19:43:00,
2013-09-15 12:48:00,64.4,33.8,29.76,SSW,198,0.0,0.0,33,0.00,,,0.00,WUHU216WMR968SP,2013-09-15 19:48:00,
2013-09-15 12:53:00,64.8,33.8,29.76,SSW,198,0.0,0.0,33,0.00,,,0.00,WUHU216WMR968SP,2013-09-15 19:53:00,
2013-09-15 12:58:00,64.8,33.8,29.76,SSW,194,0.0,0.0,32,0.00,,,0.00,WUHU216WMR968SP,2013-09-15 19:58:00,
2013-09-15 13:03:00,64.9,33.8,29.76,South,174,0.0,0.0,31,0.00,,,0.00,WUHU216WMR968SP,2013-09-15 20:03:00,
2013-09-15 13:08:00,64.9,32.0,29.76,SW,232,0.0,3.1,30,0.00,,,0.00,WUHU216WMR968SP,2013-09-15 20:08:00,
2013-09-15 13:13:00,65.3,33.8,29.76,SW,234,0.0,3.1,31,0.00,,,0.00,WUHU216WMR968SP,2013-09-15 20:13:00,
2013-09-15 13:18:00,65.8,35.6,29.76,WNW,299,0.0,0.0,32,0.00,,,0.00,WUHU216WMR968SP,2013-09-15 20:18:00,
2013-09-15 13:23:00,66.0,33.8,29.76,North,353,0.0,0.0,30,0.00,,,0.00,WUHU216WMR968SP,2013-09-15 20:23:00,
2013-09-15 13:28:00,66.0,33.8,29.76,North,357,0.0,0.0,30,0.00,,,0.00,WUHU216WMR968SP,2013-09-15 20:28:00,
2013-09-15 13:33:00,65.7,33.8,29.76,NNE,12,0.0,0.0,29,0.00,,,0.00,WUHU216WMR968SP,2013-09-15 20:33:00,
2013-09-15 13:38:00,65.5,33.8,29.76,NNE,12,0.0,0.0,30,0.00,,,0.00,WUHU216WMR968SP,2013-09-15 20:38:00,
2013-09-15 13:43:00,65.5,33.8,29.76,NNE,12,0.0,0.0,30,0.00,,,0.00,WUHU216WMR968SP,2013-09-15 20:43:00,
2013-09-15 13:48:00,65.1,33.8,29.76,WNW,294,0.0,0.0,31,0.00,,,0.00,WUHU216WMR968SP,2013-09-15 20:48:00,
2013-09-15 13:53:00,65.1,33.8,29.76,WNW,292,2.2,4.0,32,0.00,,,0.00,WUHU216WMR968SP,2013-09-15 20:53:00,
2013-09-15 13:58:00,65.1,33.8,29.76,NW,316,0.0,4.0,32,0.00,,,0.00,WUHU216WMR968SP,2013-09-15 20:58:00,
2013-09-15 14:03:00,65.3,35.6,29.76,NW,314,0.0,4.0,33,0.00,,,0.00,WUHU216WMR968SP,2013-09-15 21:03:00,
2013-09-15 14:08:00,65.1,33.8,29.76,NW,313,0.0,3.6,32,0.00,,,0.00,WUHU216WMR968SP,2013-09-15 21:08:00,
2013-09-15 14:13:00,65.3,35.6,29.76,NW,313,0.0,3.6,32,0.00,,,0.00,WUHU216WMR968SP,2013-09-15 21:13:00,
2013-09-15 14:18:00,65.5,33.8,29.76,East,83,0.0,3.6,31,0.00,,,0.00,WUHU216WMR968SP,2013-09-15 21:18:00,
2013-09-15 14:23:00,65.5,35.6,29.76,East,82,0.0,3.6,32,0.00,,,0.00,WUHU216WMR968SP,2013-09-15 21:23:00,
2013-09-15 14:28:00,65.3,35.6,29.76,East,82,0.0,0.0,32,0.00,,,0.00,WUHU216WMR968SP,2013-09-15 21:28:00,
2013-09-15 14:33:00,65.3,33.8,29.76,East,82,0.0,0.0,30,0.00,,,0.00,WUHU216WMR968SP,2013-09-15 21:33:00,
2013-09-15 14:38:00,65.5,33.8,29.76,East,82,0.0,0.0,30,0.00,,,0.00,WUHU216WMR968SP,2013-09-15 21:38:00,
2013-09-15 14:43:00,65.5,33.8,29.76,East,91,0.0,0.0,29,0.00,,,0.00,WUHU216WMR968SP,2013-09-15 21:43:00,
2013-09-15 14:48:00,65.8,33.8,29.76,East,90,0.0,0.0,30,0.00,,,0.00,WUHU216WMR968SP,2013-09-15 21:48:00,
2013-09-15 14:53:00,66.0,33.8,29.76,East,91,0.0,0.0,30,0.00,,,0.00,WUHU216WMR968SP,2013-09-15 21:53:00,
2013-09-15 14:58:00,66.0,32.0,29.76,ESE,116,0.0,3.1,28,0.00,,,0.00,WUHU216WMR968SP,2013-09-15 21:58:00,
2013-09-15 15:03:00,66.0,32.0,29.76,SE,127,0.0,3.1,28,0.00,,,0.00,WUHU216WMR968SP,2013-09-15 22:03:00,
2013-09-15 15:08:00,66.2,32.0,29.76,SE,128,3.1,4.0,28,0.00,,,0.00,WUHU216WMR968SP,2013-09-15 22:08:00,
2013-09-15 15:13:00,66.2,32.0,29.76,SE,127,0.0,4.0,27,0.00,,,0.00,WUHU216WMR968SP,2013-09-15 22:13:00,
2013-09-15 15:18:00,66.2,32.0,29.76,SE,129,0.0,3.6,27,0.00,,,0.00,WUHU216WMR968SP,2013-09-15 22:18:00,
2013-09-15 15:23:00,66.2,32.0,29.76,SE,129,0.0,3.6,28,0.00,,,0.00,WUHU216WMR968SP,2013-09-15 22:23:00,
2013-09-15 15:28:00,66.2,32.0,29.76,SSW,211,0.0,0.0,28,0.00,,,0.00,WUHU216WMR968SP,2013-09-15 22:28:00,
2013-09-15 15:33:00,66.2,32.0,29.76,SE,133,0.0,3.1,27,0.00,,,0.00,WUHU216WMR968SP,2013-09-15 22:33:00,
2013-09-15 15:38:00,66.0,32.0,29.76,SE,133,0.0,3.1,28,0.00,,,0.00,WUHU216WMR968SP,2013-09-15 22:38:00,
2013-09-15 15:43:00,65.8,32.0,29.76,SE,133,0.0,2.7,28,0.00,,,0.00,WUHU216WMR968SP,2013-09-15 22:43:00,
2013-09-15 15:48:00,65.8,32.0,29.76,SE,132,0.0,0.0,28,0.00,,,0.00,WUHU216WMR968SP,2013-09-15 22:48:00,
2013-09-15 15:53:00,66.0,32.0,29.76,SE,132,0.0,0.0,28,0.00,,,0.00,WUHU216WMR968SP,2013-09-15 22:53:00,
2013-09-15 15:58:00,66.4,32.0,29.76,SE,132,0.0,0.0,28,0.00,,,0.00,WUHU216WMR968SP,2013-09-15 22:58:00,
2013-09-15 16:03:00,66.7,32.0,29.76,ESE,123,0.0,0.0,27,0.00,,,0.00,WUHU216WMR968SP,2013-09-15 23:03:00,
2013-09-15 16:08:00,66.9,32.0,29.76,SE,124,0.0,0.0,28,0.00,,,0.00,WUHU216WMR968SP,2013-09-15 23:08:00,
2013-09-15 16:13:00,66.9,32.0,29.76,SE,124,0.0,0.0,27,0.00,,,0.00,WUHU216WMR968SP,2013-09-15 23:13:00,
2013-09-15 16:18:00,67.1,32.0,29.76,ESE,123,0.0,0.0,27,0.00,,,0.00,WUHU216WMR968SP,2013-09-15 23:18:00,
2013-09-15 16:23:00,66.9,32.0,29.76,SE,124,0.0,3.6,27,0.00,,,0.00,WUHU216WMR968SP,2013-09-15 23:23:00,
2013-09-15 16:28:00,66.4,32.0,29.76,SSW,206,0.0,3.6,27,0.00,,,0.00,WUHU216WMR968SP,2013-09-15 23:28:00,
2013-09-15 16:33:00,66.0,33.8,29.76,SSW,205,2.2,3.1,29,0.00,,,0.00,WUHU216WMR968SP,2013-09-15 23:33:00,
2013-09-15 16:38:00,65.8,33.8,29.76,SSW,206,0.0,3.1,31,0.00,,,0.00,WUHU216WMR968SP,2013-09-15 23:38:00,
2013-09-15 16:43:00,65.8,35.6,29.76,SSW,205,0.0,2.2,32,0.00,,,0.00,WUHU216WMR968SP,2013-09-15 23:43:00,
2013-09-15 16:48:00,66.0,35.6,29.76,SSW,206,0.0,0.0,32,0.00,,,0.00,WUHU216WMR968SP,2013-09-15 23:48:00,
2013-09-15 16:53:00,66.2,33.8,29.76,SSW,205,0.0,0.0,31,0.00,,,0.00,WUHU216WMR968SP,2013-09-15 23:53:00,
2013-09-15 16:58:00,66.6,33.8,29.76,SSW,206,0.0,0.0,29,0.00,,,0.00,WUHU216WMR968SP,2013-09-15 23:58:00,
2013-09-15 17:03:00,67.3,33.8,29.76,SSW,204,0.0,0.0,29,0.00,,,0.00,WUHU216WMR968SP,2013-09-16 00:03:00,
2013-09-15 17:08:00,67.3,32.0,29.76,SSW,205,0.0,2.7,27,0.00,,,0.00,WUHU216WMR968SP,2013-09-16 00:08:00,
2013-09-15 17:13:00,67.5,32.0,29.76,SE,126,2.2,4.9,27,0.00,,,0.00,WUHU216WMR968SP,2013-09-16 00:13:00,
2013-09-15 17:18:00,67.5,32.0,29.76,SE,126,0.0,4.9,26,0.00,,,0.00,WUHU216WMR968SP,2013-09-16 00:18:00,
2013-09-15 17:23:00,67.3,32.0,29.76,SE,135,2.2,5.4,26,0.00,,,0.00,WUHU216WMR968SP,2013-09-16 00:23:00,
2013-09-15 17:28:00,67.1,32.0,29.76,SE,142,0.0,5.4,26,0.00,,,0.00,WUHU216WMR968SP,2013-09-16 00:28:00,
2013-09-15 17:33:00,67.1,32.0,29.76,SE,141,0.0,4.0,26,0.00,,,0.00,WUHU216WMR968SP,2013-09-16 00:33:00,
2013-09-15 17:38:00,66.9,30.7,29.76,SE,143,0.0,4.0,26,0.00,,,0.00,WUHU216WMR968SP,2013-09-16 00:38:00,
2013-09-15 17:43:00,66.9,30.7,29.76,SE,143,0.0,4.0,26,0.00,,,0.00,WUHU216WMR968SP,2013-09-16 00:43:00,
2013-09-15 17:48:00,66.7,32.0,29.76,SE,146,0.0,3.1,27,0.00,,,0.00,WUHU216WMR968SP,2013-09-16 00:48:00,
2013-09-15 17:53:00,66.6,32.0,29.79,SE,145,0.0,2.2,27,0.00,,,0.00,WUHU216WMR968SP,2013-09-16 00:53:00,
2013-09-15 17:58:00,66.4,32.0,29.79,SE,145,0.0,2.2,27,0.00,,,0.00,WUHU216WMR968SP,2013-09-16 00:58:00,
2013-09-15 18:03:00,66.0,32.0,29.79,SSW,206,2.2,3.1,28,0.00,,,0.00,WUHU216WMR968SP,2013-09-16 01:03:00,
2013-09-15 18:08:00,65.5,35.6,29.79,SSW,205,0.0,3.1,32,0.00,,,0.00,WUHU216WMR968SP,2013-09-16 01:08:00,
2013-09-15 18:13:00,64.8,33.8,29.79,SSW,207,0.0,3.1,33,0.00,,,0.00,WUHU216WMR968SP,2013-09-16 01:13:00,
2013-09-15 18:18:00,64.4,33.8,29.79,SSW,211,2.2,4.9,33,0.00,,,0.00,WUHU216WMR968SP,2013-09-16 01:18:00,
2013-09-15 18:23:00,64.2,35.6,29.79,SSW,212,0.0,4.9,34,0.00,,,0.00,WUHU216WMR968SP,2013-09-16 01:23:00,
2013-09-15 18:28:00,64.0,35.6,29.79,SSW,212,0.0,3.6,34,0.00,,,0.00,WUHU216WMR968SP,2013-09-16 01:28:00,
2013-09-15 18:33:00,63.9,35.6,29.79,SSW,208,0.0,4.0,34,0.00,,,0.00,WUHU216WMR968SP,2013-09-16 01:33:00,
2013-09-15 18:38:00,63.9,33.8,29.79,South,183,2.7,4.0,33,0.00,,,0.00,WUHU216WMR968SP,2013-09-16 01:38:00,
2013-09-15 18:43:00,63.9,33.8,29.79,SSE,166,2.2,4.0,33,0.00,,,0.00,WUHU216WMR968SP,2013-09-16 01:43:00,
2013-09-15 18:48:00,63.9,33.8,29.79,SW,218,0.0,4.0,33,0.00,,,0.00,WUHU216WMR968SP,2013-09-16 01:48:00,
2013-09-15 18:53:00,63.7,33.8,29.79,SW,217,0.0,3.6,33,0.00,,,0.00,WUHU216WMR968SP,2013-09-16 01:53:00,
2013-09-15 18:58:00,63.7,33.8,29.79,SW,219,0.0,0.0,33,0.00,,,0.00,WUHU216WMR968SP,2013-09-16 01:58:00,
2013-09-15 19:03:00,63.5,33.8,29.79,WSW,245,0.0,3.1,33,0.00,,,0.00,WUHU216WMR968SP,2013-09-16 02:03:00,
2013-09-15 19:08:00,63.5,33.8,29.79,SSW,206,0.0,3.1,32,0.00,,,0.00,WUHU216WMR968SP,2013-09-16 02:08:00,
2013-09-15 19:13:00,63.5,33.8,29.79,SSW,204,0.0,3.6,32,0.00,,,0.00,WUHU216WMR968SP,2013-09-16 02:13:00,
2013-09-15 19:18:00,63.3,32.0,29.79,SSE,148,0.0,4.5,32,0.00,,,0.00,WUHU216WMR968SP,2013-09-16 02:18:00,
2013-09-15 19:23:00,63.3,32.0,29.79,SSW,198,0.0,7.2,31,0.00,,,0.00,WUHU216WMR968SP,2013-09-16 02:23:00,
2013-09-15 19:28:00,63.1,32.0,29.79,SW,232,0.0,7.2,31,0.00,,,0.00,WUHU216WMR968SP,2013-09-16 02:28:00,
2013-09-15 19:33:00,63.0,32.0,29.79,WSW,247,0.0,4.9,31,0.00,,,0.00,WUHU216WMR968SP,2013-09-16 02:33:00,
2013-09-15 19:38:00,63.0,32.0,29.79,WSW,247,0.0,4.9,31,0.00,,,0.00,WUHU216WMR968SP,2013-09-16 02:38:00,
2013-09-15 19:43:00,62.8,30.7,29.79,SW,235,2.2,4.9,30,0.00,,,0.00,WUHU216WMR968SP,2013-09-16 02:43:00,
2013-09-15 19:48:00,62.8,30.7,29.79,South,173,2.2,4.9,30,0.00,,,0.00,WUHU216WMR968SP,2013-09-16 02:48:00,
2013-09-15 19:53:00,62.6,30.5,29.82,South,179,2.2,4.0,30,0.00,,,0.00,WUHU216WMR968SP,2013-09-16 02:53:00,
2013-09-15 19:58:00,62.4,32.0,29.82,South,182,0.0,3.6,31,0.00,,,0.00,WUHU216WMR968SP,2013-09-16 02:58:00,
2013-09-15 20:03:00,62.4,32.0,29.82,SSW,206,0.0,2.7,31,0.00,,,0.00,WUHU216WMR968SP,2013-09-16 03:03:00,
2013-09-15 20:08:00,62.4,32.0,29.82,SSW,206,0.0,2.7,31,0.00,,,0.00,WUHU216WMR968SP,2013-09-16 03:08:00,
2013-09-15 20:13:00,62.2,32.0,29.82,SSW,206,0.0,0.0,32,0.00,,,0.00,WUHU216WMR968SP,2013-09-16 03:13:00,
2013-09-15 20:18:00,62.1,33.8,29.82,SSW,206,0.0,0.0,33,0.00,,,0.00,WUHU216WMR968SP,2013-09-16 03:18:00,
2013-09-15 20:23:00,61.9,33.8,29.82,SSW,206,0.0,0.0,34,0.00,,,0.00,WUHU216WMR968SP,2013-09-16 03:23:00,
2013-09-15 20:28:00,61.7,33.8,29.82,SSW,206,0.0,0.0,34,0.00,,,0.00,WUHU216WMR968SP,2013-09-16 03:28:00,
2013-09-15 20:33:00,61.3,32.0,29.82,SSW,206,0.0,0.0,34,0.00,,,0.00,WUHU216WMR968SP,2013-09-16 03:33:00,
2013-09-15 20:38:00,60.8,32.0,29.82,SSW,206,0.0,0.0,34,0.00,,,0.00,WUHU216WMR968SP,2013-09-16 03:38:00,
2013-09-15 20:43:00,60.3,33.8,29.82,SSW,206,0.0,0.0,35,0.00,,,0.00,WUHU216WMR968SP,2013-09-16 03:43:00,
2013-09-15 20:48:00,60.1,33.8,29.82,SSW,206,0.0,0.0,35,0.00,,,0.00,WUHU216WMR968SP,2013-09-16 03:48:00,
2013-09-15 20:53:00,59.7,32.0,29.82,SSW,206,0.0,0.0,36,0.00,,,0.00,WUHU216WMR968SP,2013-09-16 03:53:00,
2013-09-15 20:58:00,59.7,32.0,29.82,SSW,206,0.0,0.0,36,0.00,,,0.00,WUHU216WMR968SP,2013-09-16 03:58:00,
2013-09-15 21:01:00,59.5,32.0,29.82,SSW,206,0.0,0.0,37,0.00,,,0.00,WUHU216WMR968SP,2013-09-16 04:01:00,
2013-09-15 21:06:00,59.4,32.0,29.82,SSW,206,0.0,0.0,37,0.00,,,0.00,WUHU216WMR968SP,2013-09-16 04:06:00,
2013-09-15 21:11:00,59.4,33.8,29.82,SSW,206,0.0,0.0,38,0.00,,,0.00,WUHU216WMR968SP,2013-09-16 04:11:00,
2013-09-15 21:16:00,59.4,33.8,29.82,SSW,206,0.0,0.0,38,0.00,,,0.00,WUHU216WMR968SP,2013-09-16 04:16:00,
2013-09-15 21:21:00,59.4,33.8,29.82,SSW,206,0.0,0.0,38,0.00,,,0.00,WUHU216WMR968SP,2013-09-16 04:21:00,
2013-09-15 21:26:00,59.4,33.8,29.82,SSW,206,0.0,0.0,38,0.00,,,0.00,WUHU216WMR968SP,2013-09-16 04:26:00,
2013-09-15 21:31:00,59.5,33.8,29.82,SSW,206,0.0,0.0,38,0.00,,,0.00,WUHU216WMR968SP,2013-09-16 04:31:00,
2013-09-15 21:36:00,59.5,33.8,29.82,SSW,206,0.0,0.0,38,0.00,,,0.00,WUHU216WMR968SP,2013-09-16 04:36:00,
2013-09-15 21:41:00,59.7,33.8,29.82,SSW,206,0.0,0.0,38,0.00,,,0.00,WUHU216WMR968SP,2013-09-16 04:41:00,
2013-09-15 21:46:00,59.7,33.8,29.82,SSW,206,0.0,0.0,38,0.00,,,0.00,WUHU216WMR968SP,2013-09-16 04:46:00,
2013-09-15 21:51:00,59.7,33.8,29.85,SSW,206,0.0,0.0,38,0.00,,,0.00,WUHU216WMR968SP,2013-09-16 04:51:00,
2013-09-15 21:56:00,59.7,33.8,29.85,SSW,206,0.0,0.0,38,0.00,,,0.00,WUHU216WMR968SP,2013-09-16 04:56:00,
2013-09-15 22:01:00,59.9,33.8,29.85,SSW,206,0.0,0.0,37,0.00,,,0.00,WUHU216WMR968SP,2013-09-16 05:01:00,
2013-09-15 22:06:00,60.1,33.8,29.85,SSW,206,0.0,0.0,37,0.00,,,0.00,WUHU216WMR968SP,2013-09-16 05:06:00,
2013-09-15 22:11:00,60.1,33.8,29.85,SSW,206,0.0,0.0,37,0.00,,,0.00,WUHU216WMR968SP,2013-09-16 05:11:00,
2013-09-15 22:16:00,60.1,33.8,29.85,SSW,206,0.0,0.0,37,0.00,,,0.00,WUHU216WMR968SP,2013-09-16 05:16:00,
2013-09-15 22:21:00,60.1,33.8,29.85,SSW,206,0.0,0.0,37,0.00,,,0.00,WUHU216WMR968SP,2013-09-16 05:21:00,
2013-09-15 22:26:00,59.9,33.8,29.85,SSW,206,0.0,0.0,37,0.00,,,0.00,WUHU216WMR968SP,2013-09-16 05:26:00,
2013-09-15 22:31:00,59.9,33.8,29.85,SSW,206,0.0,0.0,37,0.00,,,0.00,WUHU216WMR968SP,2013-09-16 05:31:00,
2013-09-15 22:36:00,59.9,33.8,29.85,SSW,206,0.0,0.0,37,0.00,,,0.00,WUHU216WMR968SP,2013-09-16 05:36:00,
2013-09-15 22:41:00,59.9,33.8,29.85,SSW,206,0.0,0.0,37,0.00,,,0.00,WUHU216WMR968SP,2013-09-16 05:41:00,
2013-09-15 22:46:00,59.9,35.6,29.85,SSW,206,0.0,0.0,38,0.00,,,0.00,WUHU216WMR968SP,2013-09-16 05:46:00,
2013-09-15 22:51:00,59.9,35.6,29.85,SSW,206,0.0,0.0,38,0.00,,,0.00,WUHU216WMR968SP,2013-09-16 05:51:00,
2013-09-15 22:56:00,59.9,35.6,29.85,SSW,206,0.0,0.0,38,0.00,,,0.00,WUHU216WMR968SP,2013-09-16 05:56:00,
2013-09-15 23:01:00,59.9,35.6,29.85,SSW,206,0.0,0.0,38,0.00,,,0.00,WUHU216WMR968SP,2013-09-16 06:01:00,
2013-09-15 23:06:00,59.9,35.6,29.85,SSW,206,0.0,0.0,38,0.00,,,0.00,WUHU216WMR968SP,2013-09-16 06:06:00,
2013-09-15 23:11:00,59.9,35.6,29.85,SSW,206,0.0,0.0,39,0.00,,,0.00,WUHU216WMR968SP,2013-09-16 06:11:00,
2013-09-15 23:16:00,59.9,35.6,29.85,SSW,206,0.0,0.0,39,0.00,,,0.00,WUHU216WMR968SP,2013-09-16 06:16:00,
2013-09-15 23:21:00,59.7,33.8,29.85,SSW,206,0.0,0.0,39,0.00,,,0.00,WUHU216WMR968SP,2013-09-16 06:21:00,
2013-09-15 23:26:00,59.5,33.8,29.85,SSW,206,0.0,0.0,39,0.00,,,0.00,WUHU216WMR968SP,2013-09-16 06:26:00,
2013-09-15 23:31:00,59.4,35.6,29.85,SSW,206,0.0,0.0,40,0.00,,,0.00,WUHU216WMR968SP,2013-09-16 06:31:00,
2013-09-15 23:36:00,59.2,35.6,29.85,SSW,206,0.0,0.0,40,0.00,,,0.00,WUHU216WMR968SP,2013-09-16 06:36:00,
2013-09-15 23:41:00,59.2,35.6,29.85,SSW,206,0.0,0.0,40,0.00,,,0.00,WUHU216WMR968SP,2013-09-16 06:41:00,
2013-09-15 23:46:00,59.2,35.6,29.85,SSW,206,0.0,0.0,40,0.00,,,0.00,WUHU216WMR968SP,2013-09-16 06:46:00,
2013-09-15 23:51:00,59.0,35.6,29.85,SSW,206,0.0,0.0,41,0.00,,,0.00,WUHU216WMR968SP,2013-09-16 06:51:00,
2013-09-15 23:56:00,59.0,35.6,29.85,SSW,206,0.0,0.0,41,0.00,,,0.00,WUHU216WMR968SP,2013-09-16 06:56:00,